Weather History for Alghero, Italy

Change the Weather History Date:

Sunday, August 4, 2013

  Actual Average Record
Temperature  
Mean Temperature 80 °F -  
Max Temperature 95 °F 83 °F 95 °F (2003)
Min Temperature 66 °F 63 °F 59 °F (2007)
Cooling Degree Days 16    
Growing Degree Days 30 (Base 50)    
Moisture  
Dew Point 64 °F    
Average Humidity 60    
Maximum Humidity 83    
Minimum Humidity 30    
Precipitation  
Precipitation 0.00 in 0.02 in - ()
Sea Level Pressure  
Sea Level Pressure 30.09 in    
Wind  
Wind Speed 4 mph ()    
Max Wind Speed 14 mph    
Max Gust Speed -    
Visibility 6.2 miles    
Events      
Averages and records for this station are not official NWS values.
T = Trace of Precipitation, MM = Missing Value Source: Averaged Metar Reports

Daily Weather History Graph

Daily Weather History Graph

Search for Another Location

Airport:

Trip Planner

Search our weather history database for the weather conditions in past years. The results will help you decide how hot, cold, wet, or windy it might be!

Date:

Astronomy

Aug. 04, 2013 Rise Set
Actual Time 6:26 AM CEST 8:38 PM CEST
Civil Twilight 5:56 AM CEST 9:08 PM CEST
Nautical Twilight 5:18 AM CEST 9:46 PM CEST
Astronomical Twilight 4:37 AM CEST 10:26 PM CEST
Moon 4:13 AM CEST (8/4) 6:51 PM CEST (8/4)
Length of Visible Light 15h 12m
Length of Day
14h 12m
Waning Crescent, 6% of the Moon is Illuminated
Aug 4
Waning Crescent
Aug 6
New
Aug 14
First Quarter
Aug 21
Full
Aug 28
Last Quarter

Hourly Weather History & Observations

Time (CEST) Temp. Heat Index Dew Point Humidity Pressure Visibility Wind Dir Wind Speed Gust Speed Precip Events Conditions
12:20 AM 71.6 °F - 60.8 °F 69% 30.09 in - North 4.6 mph - N/A   Clear
12:50 AM 71.6 °F - 59.0 °F 64% 30.09 in - Variable 2.3 mph - N/A   Clear
1:20 AM 71.6 °F - 59.0 °F 64% 30.09 in - North 3.5 mph - N/A   Clear
1:50 AM 69.8 °F - 57.2 °F 64% 30.09 in - NNE 3.5 mph - N/A   Clear
2:20 AM 69.8 °F - 59.0 °F 68% 30.06 in - NNW 3.5 mph - N/A   Clear
3:20 AM 69.8 °F - 57.2 °F 64% 30.06 in - Variable 2.3 mph - N/A   Clear
3:50 AM 69.8 °F - 57.2 °F 64% 30.06 in - ENE 2.3 mph - N/A   Clear
4:20 AM 68.0 °F - 57.2 °F 68% 30.09 in - Variable 2.3 mph - N/A   Clear
4:50 AM 66.2 °F - 57.2 °F 73% 30.09 in - NW 3.5 mph - N/A   Clear
5:20 AM 68.0 °F - 60.8 °F 78% 30.09 in - NW 4.6 mph - N/A   Clear
5:50 AM 68.0 °F - 60.8 °F 78% 30.09 in - North 3.5 mph - N/A   Clear
6:20 AM 66.2 °F - 60.8 °F 83% 30.09 in - Variable 2.3 mph - N/A   Clear
6:50 AM 66.2 °F - 60.8 °F 83% 30.09 in - NE 3.5 mph - N/A   Clear
7:20 AM 69.8 °F - 60.8 °F 73% 30.09 in - Variable 2.3 mph - N/A   Clear
7:50 AM 71.6 °F - 59.0 °F 64% 30.12 in 6.2 mi Calm Calm - N/A   Partly Cloudy
8:20 AM 75.2 °F - 60.8 °F 61% 30.12 in 6.2 mi Calm Calm - N/A   Partly Cloudy
8:50 AM 78.8 °F - 66.2 °F 65% 30.12 in 6.2 mi Calm Calm - N/A   Partly Cloudy
9:20 AM 82.4 °F 87.2 °F 71.6 °F 70% 30.12 in - NNE 5.8 mph - N/A   Clear
9:50 AM 82.4 °F 86.3 °F 69.8 °F 66% 30.12 in - North 6.9 mph - N/A   Clear
10:20 AM 86.0 °F 90.4 °F 69.8 °F 58% 30.12 in - ENE 4.6 mph - N/A   Clear
10:50 AM 87.8 °F 89.4 °F 64.4 °F 46% 30.12 in - ENE 4.6 mph - N/A   Clear
11:20 AM 89.6 °F 91.1 °F 64.4 °F 43% 30.12 in - Variable 4.6 mph - N/A   Clear
11:50 AM 91.4 °F 92.1 °F 62.6 °F 38% 30.12 in - Variable 3.5 mph - N/A   Clear
12:20 PM 95.0 °F 94.4 °F 59.0 °F 30% 30.09 in - Variable 2.3 mph - N/A   Clear
12:50 PM 91.4 °F 95.4 °F 68.0 °F 46% 30.09 in - West 10.4 mph - N/A   Clear
1:20 PM 89.6 °F 94.7 °F 69.8 °F 52% 30.09 in - SSW 6.9 mph - N/A   Clear
1:50 PM 91.4 °F 95.4 °F 68.0 °F 46% 30.09 in - Variable 6.9 mph - N/A   Clear
2:20 PM 91.4 °F 94.0 °F 66.2 °F 43% 30.09 in - WNW 8.1 mph - N/A   Clear
2:50 PM 89.6 °F 91.1 °F 64.4 °F 43% 30.09 in - WNW 9.2 mph - N/A   Clear
3:20 PM 89.6 °F 92.2 °F 66.2 °F 46% 30.09 in - WNW 9.2 mph - N/A   Clear
3:50 PM 89.6 °F 92.2 °F 66.2 °F 46% 30.09 in - WNW 10.4 mph - N/A   Clear
4:20 PM 87.8 °F 89.4 °F 64.4 °F 46% 30.09 in - West 13.8 mph - N/A   Clear
4:50 PM 89.6 °F 89.5 °F 60.8 °F 38% 30.09 in - West 11.5 mph - N/A   Clear
5:20 PM 89.6 °F 92.2 °F 66.2 °F 46% 30.09 in - West 10.4 mph - N/A   Clear
5:50 PM 89.6 °F 91.1 °F 64.4 °F 43% 30.09 in - WNW 6.9 mph - N/A   Clear
6:20 PM 89.6 °F 91.1 °F 64.4 °F 43% 30.09 in - North 8.1 mph - N/A   Clear
6:50 PM 87.8 °F 91.4 °F 68.0 °F 52% 30.06 in - NE 11.5 mph - N/A   Clear
7:20 PM 86.0 °F 89.4 °F 68.0 °F 55% 30.09 in - NNE 10.4 mph - N/A   Clear
7:50 PM 84.2 °F 86.6 °F 66.2 °F 55% 30.09 in - NE 8.1 mph - N/A   Clear
8:20 PM 82.4 °F 84.6 °F 66.2 °F 58% 30.09 in - NE 8.1 mph - N/A   Clear
8:50 PM 80.6 °F 83.2 °F 68.0 °F 65% 30.09 in - NE 8.1 mph - N/A   Clear
9:20 PM 78.8 °F - 68.0 °F 69% 30.09 in - NE 5.8 mph - N/A   Clear
9:50 PM 77.0 °F - 68.0 °F 74% 30.09 in - NE 4.6 mph - N/A   Clear
10:20 PM 75.2 °F - 68.0 °F 78% 30.09 in - North 3.5 mph - N/A   Clear
10:50 PM 75.2 °F - 68.0 °F 78% 30.09 in - NNE 4.6 mph - N/A   Clear
11:20 PM 73.4 °F - 68.0 °F 83% 30.09 in - NNE 2.3 mph - N/A   Clear
11:50 PM 73.4 °F - 68.0 °F 83% 30.09 in - North 2.3 mph - N/A   Clear